Home   Weather   Sion   Past weeks

Flag for Switzerland Past Weather in Sion, Valais, Switzerland — Yesterday and Last 2 Weeks

Now
64 °F

Mild.


Feels Like: 64 °F
Forecast: 59 / 78 °F
Wind: 2 mph from East

Location: Sion

Current Time: Sep 29, 2016 at 10:32:56 PM

Latest Report: Sep 29, 2016 at 9:00 PM


Visibility: N/A

Pressure: 30.14 "Hg (28.37 "Hg at 514m altitude)

Humidity: 60%

Dew Point: 49 °F

Location of SionLocation

Past Weather in Sion — Graph

°F

Sion Temperature Yesterday

Maximum temperature yesterday: 74 °F (at 4:00 PM)
Minimum temperature yesterday: 49 °F (at 8:00 AM)
Average temperature yesterday: 61 °F

High & Low Weather Summary for the Past Weeks

 TemperatureHumidityPressure
High76 °F (Sep 29, 4:00 PM)96% (Sep 17, 4:00 AM)30.50 "Hg (Sep 17, 4:00 AM)
Low48 °F (Sep 25, 7:00 AM)35% (Sep 14, 9:00 PM)29.78 "Hg (Sep 15, 6:00 AM)
Average61 °F69%30.10 "Hg
* Reported Sep 14 9:00 PM — Sep 29 9:00 PM, Sion, Weather by CustomWeather, © 2016

Note: Actual official high and low records may vary slightly from our data, if they occured in-between our weather recording intervals... More about our weather records

Advertising

Sion Weather History for the Previous 24 Hours

Scroll right to see more
 ConditionsComfort  
Time TempWeatherWind HumidityBarometerVisibility
9:00 PM
Thu, Sep 29
64 °FMild.2 mph60%30.14 "HgN/A
8:00 PM64 °FClear.3 mph63%30.13 "Hg22 mi
7:00 PM70 °FMild.7 mph50%30.10 "HgN/A
6:00 PM75 °FMild.9 mph43%30.07 "HgN/A
5:00 PM75 °FSunny.10 mph42%30.09 "Hg22 mi
4:00 PM76 °FMild.13 mph39%30.10 "HgN/A
3:00 PM75 °FMild.10 mph38%30.13 "HgN/A
2:00 PM75 °FMild.5 mph37%30.16 "HgN/A
1:00 PM71 °FMild.3 mph41%30.22 "HgN/A
12:00 PM67 °FMild.3 mph47%30.26 "HgN/A
11:00 AM63 °FPassing clouds.3 mph55%30.32 "Hg22 mi
10:00 AM58 °FCool.5 mph65%30.36 "HgN/A
9:00 AM54 °FCool.5 mph76%30.39 "HgN/A
8:00 AM51 °FSunny.3 mph84%30.40 "Hg19 mi
7:00 AM53 °FCool.3 mph81%30.40 "HgN/A
6:00 AM49 °FCool.No wind91%30.43 "HgN/A
5:00 AM52 °FClear.2 mph84%30.42 "Hg16 mi
4:00 AM53 °FCool.2 mph84%30.42 "HgN/A
3:00 AM52 °FCool.1 mph85%30.43 "HgN/A
2:00 AM54 °FClear.1 mph82%30.44 "Hg16 mi
1:00 AM54 °FCool.1 mph85%30.44 "HgN/A
12:00 AM57 °FCool.1 mph74%30.43 "HgN/A
11:00 PM
Wed, Sep 28
60 °FClear.3 mph67%30.42 "Hg16 mi
10:00 PM62 °FCool.5 mph61%30.40 "HgN/A
Weather by CustomWeather, © 2016

See weather overviewHow to use our weather pages